{"data":{"norad_id":67853,"epoch":"2026-05-24T21:32:35.918016Z","epoch_age_seconds":94336,"freshness":"FRESH","line1":"1 67853U 26034D   26144.89763794  .00009440  00000+0  33040-3 0  9993","line2":"2 67853  53.1599 210.2498 0001443  79.4010 280.7153 15.30204827 15703","mean_motion":15.30204827,"eccentricity":0.0001443,"inclination_deg":53.1599,"raan_deg":210.2498,"arg_perigee_deg":79.401,"mean_anomaly_deg":280.7153,"bstar":0.0003304,"rev_number":1570,"period_min":94.105048853045,"perigee_km":474.21172028139,"apogee_km":476.18959352917,"semimajor_km":6853.3376569053,"source":"CELESTRAK","updated_at":"2026-05-25T13:38:21.725205Z"}}